Time,TemperatureF,DewpointF,PressureIn,WindDirection,WindDirectionDegrees,WindSpeedMPH,WindSpeedGustMPH,Humidity,HourlyPrecipIn,Conditions,Clouds,dailyrainin,SolarRadiationWatts/m^2,SoftwareType,DateUTC
2013-10-05 00:01:00,54.8,52.5,30.04,North,360,0.0,0.0,92,0.00,,,0.00,0.00,VWS V14.00,2013-10-05 04:01:00,
2013-10-05 00:06:00,54.8,52.5,30.04,North,360,0.0,0.0,92,0.00,,,0.00,0.00,VWS V14.00,2013-10-05 04:06:00,
2013-10-05 00:11:00,54.8,52.5,30.03,North,360,0.0,0.0,92,0.00,,,0.00,0.00,VWS V14.00,2013-10-05 04:11:00,
2013-10-05 00:16:00,54.8,52.5,30.03,North,360,0.0,0.0,92,0.00,,,0.00,0.00,VWS V14.00,2013-10-05 04:16:00,
2013-10-05 00:21:00,54.8,52.5,30.03,North,360,0.0,0.0,92,0.00,,,0.00,0.00,VWS V14.00,2013-10-05 04:21:00,
2013-10-05 00:26:00,54.8,52.5,30.03,North,360,0.0,0.0,92,0.00,,,0.00,0.00,VWS V14.00,2013-10-05 04:26:00,
2013-10-05 00:31:00,54.8,52.5,30.03,North,360,0.0,0.0,92,0.00,,,0.00,0.00,VWS V14.00,2013-10-05 04:31:00,
2013-10-05 00:36:00,54.8,52.5,30.03,North,360,0.0,0.0,92,0.00,,,0.00,0.00,VWS V14.00,2013-10-05 04:36:00,
2013-10-05 00:41:00,54.8,52.5,30.04,North,360,0.0,0.0,92,0.00,,,0.00,0.00,VWS V14.00,2013-10-05 04:41:00,
2013-10-05 00:46:00,54.8,52.5,30.04,North,360,0.0,0.0,92,0.00,,,0.00,0.00,VWS V14.00,2013-10-05 04:46:00,
2013-10-05 00:51:00,54.8,52.5,30.04,North,360,0.0,0.0,92,0.00,,,0.00,0.00,VWS V14.00,2013-10-05 04:51:00,
2013-10-05 00:56:00,54.9,52.6,30.03,North,360,0.0,0.0,92,0.00,,,0.00,0.00,VWS V14.00,2013-10-05 04:56:00,
2013-10-05 01:01:00,54.9,52.6,30.04,North,360,0.0,0.0,92,0.00,,,0.00,0.00,VWS V14.00,2013-10-05 05:01:00,
2013-10-05 01:06:00,54.9,52.6,30.04,North,360,0.0,0.0,92,0.00,,,0.00,0.00,VWS V14.00,2013-10-05 05:06:00,
2013-10-05 01:11:00,54.9,52.6,30.04,North,360,0.0,0.0,92,0.00,,,0.00,0.00,VWS V14.00,2013-10-05 05:11:00,
2013-10-05 01:16:00,54.9,52.6,30.05,North,360,0.0,0.0,92,0.00,,,0.00,0.00,VWS V14.00,2013-10-05 05:16:00,
2013-10-05 01:21:00,54.9,52.6,30.05,North,360,0.0,0.0,92,0.00,,,0.00,0.00,VWS V14.00,2013-10-05 05:21:00,
2013-10-05 01:26:00,54.9,52.6,30.04,North,360,0.0,0.0,92,0.00,,,0.00,0.00,VWS V14.00,2013-10-05 05:26:00,
2013-10-05 01:31:00,54.9,52.6,30.04,NW,315,0.0,0.0,92,0.00,,,0.00,0.00,VWS V14.00,2013-10-05 05:31:00,
2013-10-05 01:36:00,54.9,52.6,30.04,NW,315,0.0,0.0,92,0.00,,,0.00,0.00,VWS V14.00,2013-10-05 05:36:00,
2013-10-05 01:41:00,54.8,52.5,30.05,North,360,0.0,0.0,92,0.00,,,0.00,0.00,VWS V14.00,2013-10-05 05:41:00,
2013-10-05 01:47:00,54.8,52.5,30.04,North,360,0.0,0.0,92,0.00,,,0.00,0.00,VWS V14.00,2013-10-05 05:47:00,
2013-10-05 01:52:00,54.8,52.5,30.04,NW,315,0.0,0.0,92,0.00,,,0.00,0.00,VWS V14.00,2013-10-05 05:52:00,
2013-10-05 01:57:00,54.8,52.5,30.05,SW,220,0.0,0.0,92,0.00,,,0.00,0.00,VWS V14.00,2013-10-05 05:57:00,
2013-10-05 02:02:00,54.7,52.4,30.05,SW,221,0.0,0.0,92,0.00,,,0.00,0.00,VWS V14.00,2013-10-05 06:02:00,
2013-10-05 02:07:00,54.6,52.3,30.05,SW,220,0.0,0.0,92,0.00,,,0.00,0.00,VWS V14.00,2013-10-05 06:07:00,
2013-10-05 02:12:00,54.5,52.2,30.04,SW,221,0.0,0.0,92,0.00,,,0.00,0.00,VWS V14.00,2013-10-05 06:12:00,
2013-10-05 02:17:00,54.5,52.2,30.04,SW,221,0.0,0.0,92,0.00,,,0.00,0.00,VWS V14.00,2013-10-05 06:17:00,
2013-10-05 02:22:00,54.4,52.1,30.05,SW,221,0.0,0.0,92,0.00,,,0.00,0.00,VWS V14.00,2013-10-05 06:22:00,
2013-10-05 02:27:00,54.4,52.1,30.04,SW,220,0.0,0.0,92,0.00,,,0.00,0.00,VWS V14.00,2013-10-05 06:27:00,
2013-10-05 02:32:00,54.3,52.0,30.05,SW,221,0.0,0.0,92,0.00,,,0.00,0.00,VWS V14.00,2013-10-05 06:32:00,
2013-10-05 02:37:00,54.3,52.0,30.05,SW,221,0.0,0.0,92,0.00,,,0.00,0.00,VWS V14.00,2013-10-05 06:37:00,
2013-10-05 02:42:00,54.3,52.0,30.04,SW,221,0.0,0.0,92,0.00,,,0.00,0.00,VWS V14.00,2013-10-05 06:42:00,
2013-10-05 02:47:00,54.3,52.0,30.03,SW,221,0.0,0.0,92,0.00,,,0.00,0.00,VWS V14.00,2013-10-05 06:47:00,
2013-10-05 02:52:00,54.3,52.0,30.04,SW,221,0.0,0.0,92,0.00,,,0.00,0.00,VWS V14.00,2013-10-05 06:52:00,
2013-10-05 02:57:00,54.3,52.0,30.04,SW,221,0.0,0.0,92,0.00,,,0.00,0.00,VWS V14.00,2013-10-05 06:57:00,
2013-10-05 03:02:00,54.3,52.0,30.04,SW,221,0.0,0.0,92,0.00,,,0.00,0.00,VWS V14.00,2013-10-05 07:02:00,
2013-10-05 03:07:00,54.4,52.1,30.04,SSW,207,0.0,0.0,92,0.00,,,0.00,0.00,VWS V14.00,2013-10-05 07:07:00,
2013-10-05 03:12:00,54.4,52.1,30.04,SSW,207,0.0,0.0,92,0.00,,,0.00,0.00,VWS V14.00,2013-10-05 07:12:00,
2013-10-05 03:17:00,54.4,52.1,30.04,SSW,207,0.0,0.0,92,0.00,,,0.00,0.00,VWS V14.00,2013-10-05 07:17:00,
2013-10-05 03:22:00,54.4,52.1,30.04,SSW,207,0.0,0.0,92,0.00,,,0.00,0.00,VWS V14.00,2013-10-05 07:22:00,
2013-10-05 03:27:00,54.5,52.2,30.04,SW,220,0.0,0.0,92,0.00,,,0.00,0.00,VWS V14.00,2013-10-05 07:27:00,
2013-10-05 03:32:00,54.5,52.2,30.04,SW,220,0.0,0.0,92,0.00,,,0.00,0.00,VWS V14.00,2013-10-05 07:32:00,
2013-10-05 03:37:00,54.5,52.2,30.04,SW,220,0.0,0.0,92,0.00,,,0.00,0.00,VWS V14.00,2013-10-05 07:37:00,
2013-10-05 03:42:00,54.5,52.2,30.04,SW,220,0.0,0.0,92,0.00,,,0.00,0.00,VWS V14.00,2013-10-05 07:42:00,
2013-10-05 03:47:00,54.5,52.2,30.04,SW,220,0.0,0.0,92,0.00,,,0.00,0.00,VWS V14.00,2013-10-05 07:47:00,
2013-10-05 03:52:00,54.5,52.2,30.04,SW,221,0.0,0.0,92,0.00,,,0.00,0.00,VWS V14.00,2013-10-05 07:52:00,
2013-10-05 03:57:00,54.4,52.1,30.04,SW,220,0.0,0.0,92,0.00,,,0.00,0.00,VWS V14.00,2013-10-05 07:57:00,
2013-10-05 04:02:00,54.3,52.0,30.05,SW,221,0.0,0.0,92,0.00,,,0.00,0.00,VWS V14.00,2013-10-05 08:02:00,
2013-10-05 04:07:00,54.2,51.9,30.05,SW,221,0.0,0.0,92,0.00,,,0.00,0.00,VWS V14.00,2013-10-05 08:07:00,
2013-10-05 04:12:00,54.1,51.8,30.05,SW,221,0.0,0.0,92,0.00,,,0.00,0.00,VWS V14.00,2013-10-05 08:12:00,
2013-10-05 04:17:00,54.1,51.8,30.05,SW,221,0.0,0.0,92,0.00,,,0.00,0.00,VWS V14.00,2013-10-05 08:17:00,
2013-10-05 04:22:00,54.0,51.7,30.05,SW,221,0.0,0.0,92,0.00,,,0.00,0.00,VWS V14.00,2013-10-05 08:22:00,
2013-10-05 04:27:00,53.9,51.6,30.05,SW,220,0.0,0.0,92,0.00,,,0.00,0.00,VWS V14.00,2013-10-05 08:27:00,
2013-10-05 04:32:00,53.9,51.6,30.05,SW,221,0.0,0.0,92,0.00,,,0.00,0.00,VWS V14.00,2013-10-05 08:32:00,
2013-10-05 04:37:00,53.8,51.5,30.05,SW,221,0.0,0.0,92,0.00,,,0.00,0.00,VWS V14.00,2013-10-05 08:37:00,
2013-10-05 04:42:00,53.8,51.2,30.05,SW,221,0.0,0.0,91,0.00,,,0.00,0.00,VWS V14.00,2013-10-05 08:42:00,
2013-10-05 04:47:00,53.6,51.3,30.06,SW,220,0.0,0.0,92,0.00,,,0.00,0.00,VWS V14.00,2013-10-05 08:47:00,
2013-10-05 04:52:00,53.6,51.0,30.05,SW,220,0.0,0.0,91,0.00,,,0.00,0.00,VWS V14.00,2013-10-05 08:52:00,
2013-10-05 04:57:00,53.5,50.9,30.05,SW,221,0.0,0.0,91,0.00,,,0.00,0.00,VWS V14.00,2013-10-05 08:57:00,
2013-10-05 05:02:00,53.4,50.8,30.06,SW,221,0.0,0.0,91,0.00,,,0.00,0.00,VWS V14.00,2013-10-05 09:02:00,
2013-10-05 05:07:00,53.3,50.7,30.06,SW,220,0.0,0.0,91,0.00,,,0.00,0.00,VWS V14.00,2013-10-05 09:07:00,
2013-10-05 05:12:00,53.1,50.5,30.06,SW,221,0.0,0.0,91,0.00,,,0.00,0.00,VWS V14.00,2013-10-05 09:12:00,
2013-10-05 05:17:00,53.1,50.5,30.06,SW,221,0.0,0.0,91,0.00,,,0.00,0.00,VWS V14.00,2013-10-05 09:17:00,
2013-10-05 05:22:00,53.0,50.5,30.06,SW,221,0.0,0.0,91,0.00,,,0.00,0.00,VWS V14.00,2013-10-05 09:22:00,
2013-10-05 05:27:00,53.0,50.5,30.06,SW,221,0.0,0.0,91,0.00,,,0.00,0.00,VWS V14.00,2013-10-05 09:27:00,
2013-10-05 05:32:00,53.0,50.2,30.06,SW,221,0.0,0.0,90,0.00,,,0.00,0.00,VWS V14.00,2013-10-05 09:32:00,
2013-10-05 05:37:00,52.9,50.0,30.06,SW,221,0.0,0.0,90,0.00,,,0.00,0.00,VWS V14.00,2013-10-05 09:37:00,
2013-10-05 05:42:00,52.8,50.0,30.06,SW,221,0.0,0.0,90,0.00,,,0.00,0.00,VWS V14.00,2013-10-05 09:42:00,
2013-10-05 05:47:00,52.8,50.0,30.06,SW,221,0.0,0.0,90,0.00,,,0.00,0.00,VWS V14.00,2013-10-05 09:47:00,
2013-10-05 05:52:00,52.8,50.0,30.06,SW,221,0.0,0.0,90,0.00,,,0.00,0.00,VWS V14.00,2013-10-05 09:52:00,
2013-10-05 05:57:00,52.8,50.0,30.06,SW,221,0.0,0.0,90,0.00,,,0.00,0.00,VWS V14.00,2013-10-05 09:57:00,
2013-10-05 06:02:00,52.8,50.0,30.06,SW,221,0.0,0.0,90,0.00,,,0.00,0.00,VWS V14.00,2013-10-05 10:02:00,
2013-10-05 06:07:00,52.8,50.0,30.06,SW,221,0.0,0.0,90,0.00,,,0.00,0.00,VWS V14.00,2013-10-05 10:07:00,
2013-10-05 06:12:00,52.8,50.0,30.06,SSW,207,0.0,0.0,90,0.00,,,0.00,0.00,VWS V14.00,2013-10-05 10:12:00,
2013-10-05 06:17:00,52.7,49.8,30.06,SW,221,0.0,0.0,90,0.00,,,0.00,0.00,VWS V14.00,2013-10-05 10:17:00,
2013-10-05 06:22:00,52.7,49.8,30.06,SSW,207,0.0,0.0,90,0.00,,,0.00,0.00,VWS V14.00,2013-10-05 10:22:00,
2013-10-05 06:27:00,52.7,49.8,30.06,SW,220,0.0,0.0,90,0.00,,,0.00,0.00,VWS V14.00,2013-10-05 10:27:00,
2013-10-05 06:32:00,52.7,49.8,30.06,SW,220,0.0,0.0,90,0.00,,,0.00,0.00,VWS V14.00,2013-10-05 10:32:00,
2013-10-05 06:37:00,52.6,49.5,30.06,SW,221,0.0,0.0,89,0.00,,,0.00,0.00,VWS V14.00,2013-10-05 10:37:00,
2013-10-05 06:42:00,52.5,49.4,30.06,SW,221,0.0,0.0,89,0.00,,,0.00,0.00,VWS V14.00,2013-10-05 10:42:00,
2013-10-05 06:47:00,52.5,49.7,30.06,SW,221,0.0,0.0,90,0.00,,,0.00,0.00,VWS V14.00,2013-10-05 10:47:00,
2013-10-05 06:52:00,52.6,49.8,30.06,SW,221,0.0,0.0,90,0.00,,,0.00,0.00,VWS V14.00,2013-10-05 10:52:00,
2013-10-05 06:57:00,52.6,49.8,30.06,SW,220,0.0,0.0,90,0.00,,,0.00,0.00,VWS V14.00,2013-10-05 10:57:00,
2013-10-05 07:02:00,52.6,49.8,30.06,SW,220,0.0,0.0,90,0.00,,,0.00,0.00,VWS V14.00,2013-10-05 11:02:00,
2013-10-05 07:07:00,52.6,49.8,30.06,SW,221,0.0,0.0,90,0.00,,,0.00,0.00,VWS V14.00,2013-10-05 11:07:00,
2013-10-05 07:12:00,52.6,49.8,30.06,SW,221,0.0,0.0,90,0.00,,,0.00,0.00,VWS V14.00,2013-10-05 11:12:00,
2013-10-05 07:17:00,52.6,49.8,30.06,SW,220,0.0,0.0,90,0.00,,,0.00,7.00,VWS V14.00,2013-10-05 11:17:00,
2013-10-05 07:22:00,52.6,49.8,30.07,SW,221,0.0,0.0,90,0.00,,,0.00,9.00,VWS V14.00,2013-10-05 11:22:00,
2013-10-05 07:27:00,52.7,49.8,30.07,SW,220,0.0,0.0,90,0.00,,,0.00,5.00,VWS V14.00,2013-10-05 11:27:00,
2013-10-05 07:32:00,52.6,49.8,30.07,SW,221,0.0,0.0,90,0.00,,,0.00,9.00,VWS V14.00,2013-10-05 11:32:00,
2013-10-05 07:37:00,52.6,49.8,30.07,SW,221,0.0,0.0,90,0.00,,,0.00,19.00,VWS V14.00,2013-10-05 11:37:00,
2013-10-05 07:42:00,52.6,49.8,30.07,SW,221,0.0,0.0,90,0.00,,,0.00,28.00,VWS V14.00,2013-10-05 11:42:00,
2013-10-05 07:47:00,52.6,49.8,30.07,SW,220,0.0,0.0,90,0.00,,,0.00,19.00,VWS V14.00,2013-10-05 11:47:00,
2013-10-05 07:52:00,52.6,49.8,30.07,SW,221,0.0,0.0,90,0.00,,,0.00,11.00,VWS V14.00,2013-10-05 11:52:00,
2013-10-05 07:57:00,52.7,49.8,30.07,SW,221,0.0,0.0,90,0.00,,,0.00,28.00,VWS V14.00,2013-10-05 11:57:00,
2013-10-05 08:02:00,52.8,50.0,30.07,North,360,0.0,0.0,90,0.00,,,0.00,33.00,VWS V14.00,2013-10-05 12:02:00,
2013-10-05 08:07:00,53.0,50.2,30.07,North,360,0.0,0.0,90,0.00,,,0.00,35.00,VWS V14.00,2013-10-05 12:07:00,
2013-10-05 08:12:00,53.1,50.5,30.07,North,360,0.0,0.0,91,0.00,,,0.00,54.00,VWS V14.00,2013-10-05 12:12:00,
2013-10-05 08:17:00,53.1,50.5,30.06,NW,314,0.0,0.0,91,0.00,,,0.00,79.00,VWS V14.00,2013-10-05 12:17:00,
2013-10-05 08:22:00,53.2,50.7,30.05,North,360,0.0,0.0,91,0.00,,,0.00,95.00,VWS V14.00,2013-10-05 12:22:00,
2013-10-05 08:27:00,53.5,50.9,30.06,North,360,0.0,0.0,91,0.00,,,0.00,90.00,VWS V14.00,2013-10-05 12:27:00,
2013-10-05 08:32:00,53.6,51.0,30.07,North,360,0.0,0.0,91,0.00,,,0.00,54.00,VWS V14.00,2013-10-05 12:32:00,
2013-10-05 08:37:00,53.8,51.2,30.07,North,360,0.0,0.0,91,0.00,,,0.00,51.00,VWS V14.00,2013-10-05 12:37:00,
2013-10-05 08:42:00,54.0,51.4,30.08,North,360,0.0,0.0,91,0.00,,,0.00,56.00,VWS V14.00,2013-10-05 12:42:00,
2013-10-05 08:47:00,54.0,51.4,30.08,North,360,0.0,0.0,91,0.00,,,0.00,56.00,VWS V14.00,2013-10-05 12:47:00,
2013-10-05 08:52:00,54.1,51.5,30.08,North,360,0.0,0.0,91,0.00,,,0.00,62.00,VWS V14.00,2013-10-05 12:52:00,
2013-10-05 08:58:00,54.2,51.3,30.08,North,360,0.0,0.0,90,0.01,,,0.01,62.00,VWS V14.00,2013-10-05 12:58:00,
2013-10-05 09:03:00,54.4,51.8,30.08,SSE,155,0.0,0.0,91,0.01,,,0.01,95.00,VWS V14.00,2013-10-05 13:03:00,
2013-10-05 09:08:00,54.8,52.2,30.07,SSE,155,0.0,0.0,91,0.01,,,0.01,88.00,VWS V14.00,2013-10-05 13:08:00,
2013-10-05 09:13:00,55.0,52.4,30.07,SSE,157,0.0,0.0,91,0.01,,,0.01,76.00,VWS V14.00,2013-10-05 13:13:00,
2013-10-05 09:18:00,55.2,52.3,30.08,SSE,157,0.0,0.0,90,0.01,,,0.01,69.00,VWS V14.00,2013-10-05 13:18:00,
2013-10-05 09:23:00,55.2,52.3,30.08,ESE,122,0.0,0.0,90,0.01,,,0.01,72.00,VWS V14.00,2013-10-05 13:23:00,
2013-10-05 09:28:00,55.1,52.2,30.08,ESE,120,0.0,0.0,90,0.01,,,0.01,90.00,VWS V14.00,2013-10-05 13:28:00,
2013-10-05 09:33:00,55.1,51.9,30.08,SE,126,0.0,0.0,89,0.01,,,0.01,102.00,VWS V14.00,2013-10-05 13:33:00,
2013-10-05 09:38:00,55.0,51.8,30.08,SE,134,0.0,0.0,89,0.01,,,0.01,134.00,VWS V14.00,2013-10-05 13:38:00,
2013-10-05 09:43:00,54.9,51.4,30.08,SE,134,0.0,0.0,88,0.01,,,0.01,144.00,VWS V14.00,2013-10-05 13:43:00,
2013-10-05 09:48:00,54.9,51.4,30.08,SE,134,0.0,0.0,88,0.01,,,0.01,172.00,VWS V14.00,2013-10-05 13:48:00,
2013-10-05 09:53:00,55.0,51.2,30.08,SE,134,0.0,0.0,87,0.01,,,0.01,156.00,VWS V14.00,2013-10-05 13:53:00,
2013-10-05 09:58:00,55.0,50.9,30.08,SSE,153,0.0,0.0,86,0.00,,,0.01,174.00,VWS V14.00,2013-10-05 13:58:00,
2013-10-05 10:03:00,55.1,50.7,30.08,SSE,165,0.0,0.0,85,0.00,,,0.01,149.00,VWS V14.00,2013-10-05 14:03:00,
2013-10-05 10:08:00,55.2,50.5,30.08,SSE,157,0.0,0.0,84,0.00,,,0.01,146.00,VWS V14.00,2013-10-05 14:08:00,
2013-10-05 10:13:00,55.3,49.9,30.08,SSE,168,0.0,0.0,82,0.00,,,0.01,149.00,VWS V14.00,2013-10-05 14:13:00,
2013-10-05 10:18:00,55.5,49.8,30.08,SSE,168,0.0,0.0,81,0.00,,,0.01,163.00,VWS V14.00,2013-10-05 14:18:00,
2013-10-05 10:23:00,55.7,49.6,30.08,SSE,168,0.0,0.0,80,0.00,,,0.01,167.00,VWS V14.00,2013-10-05 14:23:00,
2013-10-05 10:28:00,55.8,49.4,30.08,SSE,157,0.0,0.0,79,0.00,,,0.01,158.00,VWS V14.00,2013-10-05 14:28:00,
2013-10-05 10:33:00,55.8,48.4,30.08,SSE,153,0.0,0.0,76,0.00,,,0.01,162.00,VWS V14.00,2013-10-05 14:33:00,
2013-10-05 10:38:00,55.8,48.4,30.09,SSE,153,0.0,0.0,76,0.00,,,0.01,146.00,VWS V14.00,2013-10-05 14:38:00,
2013-10-05 10:43:00,55.9,48.1,30.08,SSE,154,0.0,0.0,75,0.00,,,0.01,149.00,VWS V14.00,2013-10-05 14:43:00,
2013-10-05 10:48:00,55.9,48.1,30.08,SSE,154,0.0,0.0,75,0.00,,,0.01,165.00,VWS V14.00,2013-10-05 14:48:00,
2013-10-05 10:53:00,56.0,47.8,30.08,SE,144,0.0,0.0,74,0.00,,,0.01,160.00,VWS V14.00,2013-10-05 14:53:00,
2013-10-05 10:58:00,56.0,47.8,30.09,SE,144,0.0,0.0,74,0.00,,,0.01,151.00,VWS V14.00,2013-10-05 14:58:00,
2013-10-05 11:03:00,56.1,47.9,30.09,SSE,154,0.0,0.0,74,0.00,,,0.01,158.00,VWS V14.00,2013-10-05 15:03:00,
2013-10-05 11:08:00,56.2,48.0,30.09,SSE,154,0.0,0.0,74,0.00,,,0.01,167.00,VWS V14.00,2013-10-05 15:08:00,
2013-10-05 11:13:00,56.3,48.1,30.08,SSE,154,0.0,0.0,74,0.00,,,0.01,214.00,VWS V14.00,2013-10-05 15:13:00,
2013-10-05 11:18:00,56.4,48.6,30.08,SSE,155,0.0,0.0,75,0.00,,,0.01,243.00,VWS V14.00,2013-10-05 15:18:00,
2013-10-05 11:23:00,56.6,48.1,30.09,SSE,155,0.0,0.0,73,0.00,,,0.01,253.00,VWS V14.00,2013-10-05 15:23:00,
2013-10-05 11:28:00,56.8,48.2,30.09,SSE,155,0.0,0.0,73,0.00,,,0.01,258.00,VWS V14.00,2013-10-05 15:28:00,
2013-10-05 11:33:00,56.9,47.6,30.09,SSE,155,0.0,0.0,71,0.00,,,0.01,176.00,VWS V14.00,2013-10-05 15:33:00,
2013-10-05 11:38:00,57.1,48.2,30.09,SSE,155,0.0,0.0,72,0.00,,,0.01,200.00,VWS V14.00,2013-10-05 15:38:00,
2013-10-05 11:43:00,57.3,48.4,30.09,SSE,155,0.0,0.0,72,0.00,,,0.01,269.00,VWS V14.00,2013-10-05 15:43:00,
2013-10-05 11:48:00,57.5,48.6,30.09,SSE,155,0.0,0.0,72,0.00,,,0.01,258.00,VWS V14.00,2013-10-05 15:48:00,
2013-10-05 11:53:00,57.8,49.2,30.09,South,173,0.0,0.0,73,0.00,,,0.01,234.00,VWS V14.00,2013-10-05 15:53:00,
2013-10-05 11:58:00,58.0,48.7,30.09,South,181,0.0,0.0,71,0.00,,,0.01,237.00,VWS V14.00,2013-10-05 15:58:00,
2013-10-05 12:03:00,58.0,48.7,30.09,SSW,206,0.0,0.0,71,0.00,,,0.01,255.00,VWS V14.00,2013-10-05 16:03:00,
2013-10-05 12:08:00,58.2,48.8,30.08,South,189,0.0,0.0,71,0.00,,,0.01,283.00,VWS V14.00,2013-10-05 16:08:00,
2013-10-05 12:13:00,58.2,49.6,30.08,South,183,0.0,0.0,73,0.00,,,0.01,329.00,VWS V14.00,2013-10-05 16:13:00,
2013-10-05 12:18:00,58.4,49.8,30.09,ESE,107,0.0,0.0,73,0.00,,,0.01,339.00,VWS V14.00,2013-10-05 16:18:00,
2013-10-05 12:23:00,58.4,49.8,30.08,South,171,0.0,0.0,73,0.00,,,0.01,214.00,VWS V14.00,2013-10-05 16:23:00,
2013-10-05 12:28:00,58.4,49.4,30.08,SE,130,0.0,0.0,72,0.00,,,0.01,221.00,VWS V14.00,2013-10-05 16:28:00,
2013-10-05 12:33:00,58.3,49.3,30.08,SE,134,0.0,0.0,72,0.00,,,0.01,294.00,VWS V14.00,2013-10-05 16:33:00,
2013-10-05 12:38:00,58.3,49.3,30.08,SE,126,0.0,0.0,72,0.00,,,0.01,253.00,VWS V14.00,2013-10-05 16:38:00,
2013-10-05 12:43:00,58.4,49.8,30.08,SSE,163,0.0,0.0,73,0.00,,,0.01,267.00,VWS V14.00,2013-10-05 16:43:00,
2013-10-05 12:48:00,58.4,49.4,30.07,SSE,161,0.0,0.0,72,0.00,,,0.01,241.00,VWS V14.00,2013-10-05 16:48:00,
2013-10-05 12:53:00,58.6,50.0,30.07,SSW,194,0.0,0.0,73,0.00,,,0.01,295.00,VWS V14.00,2013-10-05 16:53:00,
2013-10-05 12:58:00,58.7,50.1,30.07,South,171,0.0,0.0,73,0.00,,,0.01,330.00,VWS V14.00,2013-10-05 16:58:00,
2013-10-05 13:03:00,58.8,50.2,30.07,South,176,0.0,0.0,73,0.00,,,0.01,230.00,VWS V14.00,2013-10-05 17:03:00,
2013-10-05 13:08:00,58.8,50.2,30.07,SSE,163,0.0,0.0,73,0.00,,,0.01,190.00,VWS V14.00,2013-10-05 17:08:00,
2013-10-05 13:13:00,58.6,50.0,30.07,SSE,154,0.0,0.0,73,0.00,,,0.01,230.00,VWS V14.00,2013-10-05 17:13:00,
2013-10-05 13:19:00,58.5,49.9,30.06,South,175,0.0,0.0,73,0.00,,,0.01,172.00,VWS V14.00,2013-10-05 17:19:00,
2013-10-05 13:24:00,58.4,49.8,30.06,SSE,159,0.0,0.0,73,0.00,,,0.01,160.00,VWS V14.00,2013-10-05 17:24:00,
2013-10-05 13:29:00,58.3,50.1,30.06,SSE,156,0.0,0.0,74,0.00,,,0.01,148.00,VWS V14.00,2013-10-05 17:29:00,
2013-10-05 13:34:00,58.2,50.0,30.06,South,178,0.0,0.0,74,0.00,,,0.01,144.00,VWS V14.00,2013-10-05 17:34:00,
2013-10-05 13:39:00,58.2,50.0,30.06,South,178,0.0,0.0,74,0.00,,,0.01,139.00,VWS V14.00,2013-10-05 17:39:00,
2013-10-05 13:44:00,58.1,49.9,30.06,South,178,0.0,0.0,74,0.00,,,0.01,120.00,VWS V14.00,2013-10-05 17:44:00,
2013-10-05 13:49:00,58.1,49.9,30.06,South,178,0.0,0.0,74,0.00,,,0.01,142.00,VWS V14.00,2013-10-05 17:49:00,
2013-10-05 13:54:00,58.0,50.1,30.06,SSE,166,0.0,0.0,75,0.00,,,0.01,148.00,VWS V14.00,2013-10-05 17:54:00,
2013-10-05 13:59:00,58.0,49.8,30.05,South,178,0.0,0.0,74,0.00,,,0.01,174.00,VWS V14.00,2013-10-05 17:59:00,
2013-10-05 14:04:00,58.0,50.1,30.06,South,179,0.0,0.0,75,0.00,,,0.01,142.00,VWS V14.00,2013-10-05 18:04:00,
2013-10-05 14:09:00,58.0,50.1,30.06,SSW,213,0.0,0.0,75,0.00,,,0.01,135.00,VWS V14.00,2013-10-05 18:09:00,
2013-10-05 14:14:00,58.1,50.2,30.05,SSW,213,0.0,0.0,75,0.00,,,0.01,151.00,VWS V14.00,2013-10-05 18:14:00,
2013-10-05 14:19:00,58.1,50.2,30.05,SSW,196,0.0,0.0,75,0.00,,,0.01,155.00,VWS V14.00,2013-10-05 18:19:00,
2013-10-05 14:24:00,58.2,50.3,30.06,SSW,210,0.0,0.0,75,0.00,,,0.01,116.00,VWS V14.00,2013-10-05 18:24:00,
2013-10-05 14:29:00,58.2,50.0,30.06,SSW,210,0.0,0.0,74,0.00,,,0.01,109.00,VWS V14.00,2013-10-05 18:29:00,
2013-10-05 14:34:00,58.2,50.0,30.05,SSW,210,0.0,0.0,74,0.00,,,0.01,90.00,VWS V14.00,2013-10-05 18:34:00,
2013-10-05 14:39:00,58.1,49.9,30.06,SW,218,0.0,0.0,74,0.00,,,0.01,111.00,VWS V14.00,2013-10-05 18:39:00,
2013-10-05 14:44:00,58.1,49.9,30.05,SW,218,0.0,0.0,74,0.00,,,0.01,148.00,VWS V14.00,2013-10-05 18:44:00,
2013-10-05 14:49:00,58.1,50.2,30.05,SW,218,0.0,0.0,75,0.00,,,0.01,130.00,VWS V14.00,2013-10-05 18:49:00,
2013-10-05 14:54:00,58.1,50.2,30.06,SW,218,0.0,0.0,75,0.00,,,0.01,116.00,VWS V14.00,2013-10-05 18:54:00,
2013-10-05 14:59:00,58.2,50.3,30.06,SW,218,0.0,0.0,75,0.00,,,0.01,132.00,VWS V14.00,2013-10-05 18:59:00,
2013-10-05 15:04:00,58.2,50.3,30.06,SW,218,0.0,0.0,75,0.00,,,0.01,148.00,VWS V14.00,2013-10-05 19:04:00,
2013-10-05 15:09:00,58.4,50.9,30.06,SSW,211,0.0,0.0,76,0.00,,,0.01,123.00,VWS V14.00,2013-10-05 19:09:00,
2013-10-05 15:14:00,58.4,50.5,30.06,SSW,211,0.0,0.0,75,0.00,,,0.01,134.00,VWS V14.00,2013-10-05 19:14:00,
2013-10-05 15:19:00,58.5,50.6,30.06,SSW,211,0.0,0.0,75,0.00,,,0.01,127.00,VWS V14.00,2013-10-05 19:19:00,
2013-10-05 15:24:00,58.5,50.6,30.06,SSW,211,0.0,0.0,75,0.00,,,0.01,132.00,VWS V14.00,2013-10-05 19:24:00,
2013-10-05 15:29:00,58.6,50.7,30.06,SSW,211,0.0,0.0,75,0.00,,,0.01,179.00,VWS V14.00,2013-10-05 19:29:00,
2013-10-05 15:34:00,58.7,50.8,30.06,SSW,211,0.0,0.0,75,0.00,,,0.01,163.00,VWS V14.00,2013-10-05 19:34:00,
2013-10-05 15:39:00,58.7,50.5,30.06,SSW,211,0.0,0.0,74,0.00,,,0.01,174.00,VWS V14.00,2013-10-05 19:39:00,
2013-10-05 15:44:00,58.8,50.2,30.05,SSW,211,0.0,0.0,73,0.00,,,0.01,146.00,VWS V14.00,2013-10-05 19:44:00,
2013-10-05 15:49:00,59.0,50.7,30.05,SSW,211,0.0,0.0,74,0.00,,,0.01,178.00,VWS V14.00,2013-10-05 19:49:00,
2013-10-05 15:54:00,59.1,50.8,30.06,SSW,211,0.0,0.0,74,0.00,,,0.01,130.00,VWS V14.00,2013-10-05 19:54:00,
2013-10-05 15:59:00,59.2,50.9,30.06,SSW,211,0.0,0.0,74,0.00,,,0.01,105.00,VWS V14.00,2013-10-05 19:59:00,
2013-10-05 16:04:00,59.2,50.9,30.06,SSW,211,0.0,0.0,74,0.00,,,0.01,98.00,VWS V14.00,2013-10-05 20:04:00,
2013-10-05 16:09:00,59.3,51.0,30.06,SSW,198,0.0,0.0,74,0.00,,,0.01,109.00,VWS V14.00,2013-10-05 20:09:00,
2013-10-05 16:14:00,59.2,50.6,30.06,SSW,198,0.0,0.0,73,0.00,,,0.01,88.00,VWS V14.00,2013-10-05 20:14:00,
2013-10-05 16:19:00,59.2,50.6,30.06,SSW,198,0.0,0.0,73,0.00,,,0.01,81.00,VWS V14.00,2013-10-05 20:19:00,
2013-10-05 16:24:00,59.2,50.6,30.07,SSW,198,0.0,0.0,73,0.00,,,0.01,67.00,VWS V14.00,2013-10-05 20:24:00,
2013-10-05 16:29:00,59.2,50.6,30.07,SSW,198,0.0,0.0,73,0.00,,,0.01,56.00,VWS V14.00,2013-10-05 20:29:00,
2013-10-05 16:34:00,59.2,50.9,30.07,SSW,198,0.0,0.0,74,0.00,,,0.01,91.00,VWS V14.00,2013-10-05 20:34:00,
2013-10-05 16:39:00,59.3,51.0,30.07,SSW,198,0.0,0.0,74,0.00,,,0.01,62.00,VWS V14.00,2013-10-05 20:39:00,
2013-10-05 16:44:00,59.3,51.0,30.07,SSW,198,0.0,0.0,74,0.00,,,0.01,58.00,VWS V14.00,2013-10-05 20:44:00,
2013-10-05 16:49:00,59.1,50.1,30.07,SSW,211,0.0,0.0,72,0.00,,,0.01,46.00,VWS V14.00,2013-10-05 20:49:00,
2013-10-05 16:54:00,58.9,48.8,30.07,SSW,211,0.0,0.0,69,0.00,,,0.01,56.00,VWS V14.00,2013-10-05 20:54:00,
2013-10-05 16:59:00,58.9,49.2,30.07,SSW,198,0.0,0.0,70,0.00,,,0.01,54.00,VWS V14.00,2013-10-05 20:59:00,
2013-10-05 17:04:00,58.7,46.6,30.07,SSW,198,0.0,0.0,64,0.00,,,0.01,42.00,VWS V14.00,2013-10-05 21:04:00,
2013-10-05 17:09:00,58.7,46.2,30.07,SSW,211,0.0,0.0,63,0.00,,,0.01,35.00,VWS V14.00,2013-10-05 21:09:00,
2013-10-05 17:14:00,58.6,45.6,30.07,SSW,211,0.0,0.0,62,0.00,,,0.01,32.00,VWS V14.00,2013-10-05 21:14:00,
2013-10-05 17:19:00,58.6,46.1,30.07,SSW,211,0.0,0.0,63,0.00,,,0.01,35.00,VWS V14.00,2013-10-05 21:19:00,
2013-10-05 17:24:00,58.4,45.9,30.07,SSW,211,0.0,0.0,63,0.00,,,0.01,35.00,VWS V14.00,2013-10-05 21:24:00,
2013-10-05 17:29:00,58.4,47.1,30.08,SSW,211,0.0,0.0,66,0.00,,,0.01,28.00,VWS V14.00,2013-10-05 21:29:00,
2013-10-05 17:34:00,58.4,47.5,30.07,SSW,211,0.0,0.0,67,0.00,,,0.01,25.00,VWS V14.00,2013-10-05 21:34:00,
2013-10-05 17:39:00,58.3,47.8,30.07,SSW,211,0.0,0.0,68,0.00,,,0.01,21.00,VWS V14.00,2013-10-05 21:39:00,
2013-10-05 17:44:00,58.1,46.8,30.07,SSW,211,0.0,0.0,66,0.00,,,0.01,16.00,VWS V14.00,2013-10-05 21:44:00,
2013-10-05 17:49:00,58.0,46.7,30.07,SSW,211,0.0,0.0,66,0.00,,,0.01,14.00,VWS V14.00,2013-10-05 21:49:00,
2013-10-05 17:54:00,57.8,46.9,30.08,SSW,211,0.0,0.0,67,0.00,,,0.01,14.00,VWS V14.00,2013-10-05 21:54:00,
2013-10-05 17:59:00,57.8,47.7,30.08,SSW,211,0.0,0.0,69,0.00,,,0.01,9.00,VWS V14.00,2013-10-05 21:59:00,
2013-10-05 18:04:00,57.7,48.0,30.08,SSW,211,0.0,0.0,70,0.00,,,0.01,5.00,VWS V14.00,2013-10-05 22:04:00,
2013-10-05 18:09:00,57.5,47.8,30.08,SSW,211,0.0,0.0,70,0.00,,,0.01,0.00,VWS V14.00,2013-10-05 22:09:00,
2013-10-05 18:14:00,57.2,47.5,30.08,SSW,211,0.0,0.0,70,0.00,,,0.01,0.00,VWS V14.00,2013-10-05 22:14:00,
2013-10-05 18:19:00,57.0,47.3,30.08,SSW,211,0.0,0.0,70,0.00,,,0.01,0.00,VWS V14.00,2013-10-05 22:19:00,
2013-10-05 18:24:00,56.8,47.1,30.08,SSW,198,0.0,0.0,70,0.00,,,0.01,0.00,VWS V14.00,2013-10-05 22:24:00,
2013-10-05 18:29:00,56.6,46.9,30.08,SSW,198,0.0,0.0,70,0.00,,,0.01,0.00,VWS V14.00,2013-10-05 22:29:00,
2013-10-05 18:34:00,56.3,46.7,30.08,SSW,198,0.0,0.0,70,0.00,,,0.01,0.00,VWS V14.00,2013-10-05 22:34:00,
2013-10-05 18:39:00,56.1,46.8,30.08,SSW,198,0.0,0.0,71,0.00,,,0.01,0.00,VWS V14.00,2013-10-05 22:39:00,
2013-10-05 18:44:00,55.9,46.7,30.08,SSW,211,0.0,0.0,71,0.00,,,0.01,0.00,VWS V14.00,2013-10-05 22:44:00,
2013-10-05 18:49:00,55.6,45.6,30.08,East,80,0.0,0.0,69,0.00,,,0.01,0.00,VWS V14.00,2013-10-05 22:49:00,
2013-10-05 18:54:00,55.3,45.7,30.08,East,80,0.0,0.0,70,0.00,,,0.01,0.00,VWS V14.00,2013-10-05 22:54:00,
2013-10-05 18:59:00,55.3,46.1,30.08,East,80,0.0,0.0,71,0.00,,,0.01,0.00,VWS V14.00,2013-10-05 22:59:00,
2013-10-05 19:04:00,55.1,45.9,30.08,East,80,0.0,0.0,71,0.00,,,0.01,0.00,VWS V14.00,2013-10-05 23:04:00,
2013-10-05 19:09:00,55.0,46.2,30.07,NNE,12,0.0,0.0,72,0.00,,,0.01,0.00,VWS V14.00,2013-10-05 23:09:00,
2013-10-05 19:14:00,54.9,45.7,30.07,North,5,0.0,0.0,71,0.00,,,0.01,0.00,VWS V14.00,2013-10-05 23:14:00,
2013-10-05 19:19:00,54.9,45.7,30.07,North,5,0.0,0.0,71,0.00,,,0.01,0.00,VWS V14.00,2013-10-05 23:19:00,
2013-10-05 19:24:00,55.0,46.5,30.07,North,5,0.0,0.0,73,0.00,,,0.01,0.00,VWS V14.00,2013-10-05 23:24:00,
2013-10-05 19:29:00,55.0,46.5,30.07,North,5,0.0,0.0,73,0.00,,,0.01,0.00,VWS V14.00,2013-10-05 23:29:00,
2013-10-05 19:34:00,54.9,46.4,30.07,North,5,0.0,0.0,73,0.00,,,0.01,0.00,VWS V14.00,2013-10-05 23:34:00,
2013-10-05 19:39:00,54.9,47.1,30.07,North,5,0.0,0.0,75,0.00,,,0.01,0.00,VWS V14.00,2013-10-05 23:39:00,
2013-10-05 19:44:00,54.9,47.1,30.07,North,5,0.0,0.0,75,0.00,,,0.01,0.00,VWS V14.00,2013-10-05 23:44:00,
2013-10-05 19:49:00,54.7,46.9,30.07,North,5,0.0,0.0,75,0.00,,,0.01,0.00,VWS V14.00,2013-10-05 23:49:00,
2013-10-05 19:54:00,54.6,47.2,30.07,North,5,0.0,0.0,76,0.00,,,0.01,0.00,VWS V14.00,2013-10-05 23:54:00,
2013-10-05 19:59:00,54.4,47.0,30.07,North,5,0.0,0.0,76,0.00,,,0.01,0.00,VWS V14.00,2013-10-05 23:59:00,
2013-10-05 20:04:00,54.2,46.8,30.07,North,5,0.0,0.0,76,0.00,,,0.01,0.00,VWS V14.00,2013-10-06 00:04:00,
2013-10-05 20:09:00,54.1,46.4,30.07,North,5,0.0,0.0,75,0.00,,,0.01,0.00,VWS V14.00,2013-10-06 00:09:00,
2013-10-05 20:14:00,53.9,46.2,30.07,North,5,0.0,0.0,75,0.00,,,0.01,0.00,VWS V14.00,2013-10-06 00:14:00,
2013-10-05 20:19:00,53.8,45.7,30.08,North,5,0.0,0.0,74,0.00,,,0.01,0.00,VWS V14.00,2013-10-06 00:19:00,
2013-10-05 20:24:00,53.7,45.6,30.08,North,5,0.0,0.0,74,0.00,,,0.01,0.00,VWS V14.00,2013-10-06 00:24:00,
2013-10-05 20:29:00,53.6,45.5,30.08,North,5,0.0,0.0,74,0.00,,,0.01,0.00,VWS V14.00,2013-10-06 00:29:00,
2013-10-05 20:34:00,53.6,45.5,30.08,North,5,0.0,0.0,74,0.00,,,0.01,0.00,VWS V14.00,2013-10-06 00:34:00,
2013-10-05 20:39:00,53.7,46.0,30.08,North,5,0.0,0.0,75,0.00,,,0.01,0.00,VWS V14.00,2013-10-06 00:39:00,
2013-10-05 20:44:00,53.7,46.7,30.08,North,5,0.0,0.0,77,0.00,,,0.01,0.00,VWS V14.00,2013-10-06 00:44:00,
2013-10-05 20:49:00,53.7,46.7,30.08,North,5,0.0,0.0,77,0.00,,,0.01,0.00,VWS V14.00,2013-10-06 00:49:00,
2013-10-05 20:54:00,53.7,46.7,30.08,North,5,0.0,0.0,77,0.00,,,0.01,0.00,VWS V14.00,2013-10-06 00:54:00,
2013-10-05 20:59:00,53.6,46.2,30.09,North,5,0.0,0.0,76,0.00,,,0.01,0.00,VWS V14.00,2013-10-06 00:59:00,
2013-10-05 21:04:00,53.5,46.1,30.09,North,5,0.0,0.0,76,0.00,,,0.01,0.00,VWS V14.00,2013-10-06 01:04:00,
2013-10-05 21:09:00,53.4,46.0,30.09,North,5,0.0,0.0,76,0.00,,,0.01,0.00,VWS V14.00,2013-10-06 01:09:00,
2013-10-05 21:15:00,53.3,45.9,30.08,North,5,0.0,0.0,76,0.00,,,0.01,0.00,VWS V14.00,2013-10-06 01:15:00,
2013-10-05 21:20:00,53.3,46.3,30.09,North,5,0.0,0.0,77,0.00,,,0.01,0.00,VWS V14.00,2013-10-06 01:20:00,
2013-10-05 21:25:00,53.3,46.3,30.09,North,5,0.0,0.0,77,0.00,,,0.01,0.00,VWS V14.00,2013-10-06 01:25:00,
2013-10-05 21:30:00,53.3,46.6,30.09,North,5,0.0,0.0,78,0.00,,,0.01,0.00,VWS V14.00,2013-10-06 01:30:00,
2013-10-05 21:35:00,53.4,46.7,30.09,North,5,0.0,0.0,78,0.00,,,0.01,0.00,VWS V14.00,2013-10-06 01:35:00,
2013-10-05 21:40:00,53.4,47.1,30.09,North,5,0.0,0.0,79,0.00,,,0.01,0.00,VWS V14.00,2013-10-06 01:40:00,
2013-10-05 21:45:00,53.3,47.0,30.09,North,5,0.0,0.0,79,0.00,,,0.01,0.00,VWS V14.00,2013-10-06 01:45:00,
2013-10-05 21:50:00,53.2,46.9,30.09,North,5,0.0,0.0,79,0.00,,,0.01,0.00,VWS V14.00,2013-10-06 01:50:00,
2013-10-05 21:55:00,53.2,46.9,30.09,North,5,0.0,0.0,79,0.00,,,0.01,0.00,VWS V14.00,2013-10-06 01:55:00,
2013-10-05 22:00:00,53.2,46.9,30.09,North,5,0.0,0.0,79,0.00,,,0.01,0.00,VWS V14.00,2013-10-06 02:00:00,
2013-10-05 22:05:00,53.2,46.9,30.09,North,5,0.0,0.0,79,0.00,,,0.01,0.00,VWS V14.00,2013-10-06 02:05:00,
2013-10-05 22:10:00,53.2,46.9,30.09,North,5,0.0,0.0,79,0.00,,,0.01,0.00,VWS V14.00,2013-10-06 02:10:00,
2013-10-05 22:15:00,53.2,46.9,30.10,North,5,0.0,0.0,79,0.00,,,0.01,0.00,VWS V14.00,2013-10-06 02:15:00,
2013-10-05 22:20:00,53.2,46.5,30.10,North,5,0.0,0.0,78,0.00,,,0.01,0.00,VWS V14.00,2013-10-06 02:20:00,
2013-10-05 22:26:00,53.2,46.5,30.10,NNE,13,0.0,0.0,78,0.00,,,0.01,0.00,VWS V14.00,2013-10-06 02:26:00,
2013-10-05 22:31:00,53.2,45.8,30.10,NNE,13,0.0,0.0,76,0.00,,,0.01,0.00,VWS V14.00,2013-10-06 02:31:00,
2013-10-05 22:36:00,53.3,46.3,30.10,NNE,13,0.0,0.0,77,0.00,,,0.01,0.00,VWS V14.00,2013-10-06 02:36:00,
2013-10-05 22:41:00,53.5,46.5,30.10,NNE,13,0.0,0.0,77,0.00,,,0.01,0.00,VWS V14.00,2013-10-06 02:41:00,
2013-10-05 22:46:00,53.5,46.5,30.10,NNE,13,0.0,0.0,77,0.00,,,0.01,0.00,VWS V14.00,2013-10-06 02:46:00,
2013-10-05 22:51:00,53.6,46.9,30.10,NNE,13,0.0,0.0,78,0.00,,,0.01,0.00,VWS V14.00,2013-10-06 02:51:00,
2013-10-05 22:56:00,53.6,46.6,30.09,NNE,13,0.0,0.0,77,0.00,,,0.01,0.00,VWS V14.00,2013-10-06 02:56:00,
2013-10-05 23:01:00,53.7,46.7,30.09,NNE,13,0.0,0.0,77,0.00,,,0.01,0.00,VWS V14.00,2013-10-06 03:01:00,
2013-10-05 23:06:00,53.7,46.7,30.10,NNE,13,0.0,0.0,77,0.00,,,0.01,0.00,VWS V14.00,2013-10-06 03:06:00,
2013-10-05 23:11:00,53.7,47.0,30.09,NNE,13,0.0,0.0,78,0.00,,,0.01,0.00,VWS V14.00,2013-10-06 03:11:00,
2013-10-05 23:16:00,53.8,47.1,30.09,NNE,13,0.0,0.0,78,0.00,,,0.01,0.00,VWS V14.00,2013-10-06 03:16:00,
2013-10-05 23:21:00,53.8,47.1,30.09,NNE,13,0.0,0.0,78,0.00,,,0.01,0.00,VWS V14.00,2013-10-06 03:21:00,
2013-10-05 23:26:00,53.8,47.1,30.09,NNE,13,0.0,0.0,78,0.00,,,0.01,0.00,VWS V14.00,2013-10-06 03:26:00,
2013-10-05 23:31:00,53.7,46.7,30.09,NNE,13,0.0,0.0,77,0.00,,,0.01,0.00,VWS V14.00,2013-10-06 03:31:00,
2013-10-05 23:36:00,53.5,45.8,30.10,NNE,13,0.0,0.0,75,0.00,,,0.01,0.00,VWS V14.00,2013-10-06 03:36:00,
2013-10-05 23:41:00,53.5,45.4,30.10,NNE,13,0.0,0.0,74,0.00,,,0.01,0.00,VWS V14.00,2013-10-06 03:41:00,
2013-10-05 23:46:00,53.6,45.9,30.10,NNE,13,0.0,0.0,75,0.00,,,0.01,0.00,VWS V14.00,2013-10-06 03:46:00,
2013-10-05 23:51:00,53.8,46.4,30.10,NNE,13,0.0,0.0,76,0.00,,,0.01,0.00,VWS V14.00,2013-10-06 03:51:00,
2013-10-05 23:56:00,53.9,46.9,30.10,NNE,13,0.0,0.0,77,0.00,,,0.01,0.00,VWS V14.00,2013-10-06 03:56:00,